,,,PA_Meas_PMT16A,,PR_Meas_QMR101_102,,RH_Meas_QMH101,,SR_Meas_QMS101,,TA_Meas_QMH101,,GenWind,,GenWind,
date,time,status,PA,status,PR,status,RH,status,SR,status,TA,status,DirAvg,status,SpdAvg,
2009-10-07, 00:00:04,VALID,1003.65,VALID,0,VALID,89.6165,VALID,0,VALID,25.7499,VALID,351,VALID,0.229687,
2009-10-07, 00:01:04,VALID,1003.66,VALID,0,VALID,89.8911,VALID,0,VALID,25.7285,VALID,351,VALID,0.307813,
2009-10-07, 00:02:04,VALID,1003.65,VALID,0,VALID,90.036,VALID,0,VALID,25.7285,VALID,351,VALID,0.273828,
2009-10-07, 00:03:04,VALID,1003.63,VALID,0,VALID,89.914,VALID,0,VALID,25.709,VALID,351,VALID,0.39375,
2009-10-07, 00:04:04,VALID,1003.63,VALID,0,VALID,89.8911,VALID,0,VALID,25.6895,VALID,351,VALID,0.2875,
2009-10-07, 00:05:04,VALID,1003.6,VALID,0,VALID,89.7767,VALID,0,VALID,25.6915,VALID,351,VALID,0.291797,
2009-10-07, 00:06:04,VALID,1003.59,VALID,0,VALID,89.7233,VALID,0,VALID,25.6895,VALID,351,VALID,0.551172,
2009-10-07, 00:07:04,VALID,1003.6,VALID,0,VALID,89.769,VALID,0,VALID,25.67,VALID,351,VALID,0.317187,
2009-10-07, 00:08:04,VALID,1003.56,VALID,0,VALID,89.6775,VALID,0,VALID,25.6895,VALID,351,VALID,0.314844,
2009-10-07, 00:09:04,VALID,1003.56,VALID,0,VALID,89.6699,VALID,0,VALID,25.67,VALID,351,VALID,0.274219,
2009-10-07, 00:10:04,VALID,1003.53,VALID,0,VALID,89.6775,VALID,0,VALID,25.7304,VALID,351,VALID,0.326562,
2009-10-07, 00:11:04,VALID,1003.52,VALID,0,VALID,89.6393,VALID,0,VALID,25.709,VALID,351,VALID,0.115625,
2009-10-07, 00:12:04,VALID,1003.57,VALID,0,VALID,89.6927,VALID,0,VALID,25.7285,VALID,351,VALID,0.240625,
2009-10-07, 00:13:04,VALID,1003.58,VALID,0,VALID,89.6241,VALID,0,VALID,25.7285,VALID,351,VALID,0.199609,
2009-10-07, 00:14:04,VALID,1003.59,VALID,0,VALID,89.5936,VALID,0,VALID,25.748,VALID,351,VALID,0,
2009-10-07, 00:15:04,VALID,1003.56,VALID,0,VALID,89.9216,VALID,0,VALID,25.7674,VALID,351,VALID,0,
2009-10-07, 00:16:04,VALID,1003.59,VALID,0,VALID,89.9445,VALID,0,VALID,25.7265,VALID,351,VALID,0,
2009-10-07, 00:17:04,VALID,1003.57,VALID,0,VALID,90.0589,VALID,0,VALID,25.7285,VALID,351,VALID,0,
2009-10-07, 00:18:04,VALID,1003.56,VALID,0,VALID,89.975,VALID,0,VALID,25.6895,VALID,351,VALID,0,
2009-10-07, 00:19:04,VALID,1003.55,VALID,0,VALID,90.1352,VALID,0,VALID,25.6292,VALID,351,VALID,0,
2009-10-07, 00:20:04,VALID,1003.56,VALID,0,VALID,90.2191,VALID,0,VALID,25.6116,VALID,351,VALID,0,
2009-10-07, 00:21:04,VALID,1003.51,VALID,0,VALID,90.387,VALID,0,VALID,25.6136,VALID,351,VALID,0,
2009-10-07, 00:22:04,VALID,1003.5,VALID,0,VALID,90.6082,VALID,0,VALID,25.5941,VALID,351,VALID,0,
2009-10-07, 00:23:04,VALID,1003.52,VALID,0,VALID,90.7074,VALID,0,VALID,25.5337,VALID,351,VALID,0,
2009-10-07, 00:24:04,VALID,1003.52,VALID,0,VALID,90.8752,VALID,0,VALID,25.5551,VALID,351,VALID,0,
2009-10-07, 00:25:04,VALID,1003.5,VALID,0,VALID,91.0202,VALID,0,VALID,25.5337,VALID,351,VALID,0,
2009-10-07, 00:26:04,VALID,1003.52,VALID,0,VALID,91.0659,VALID,0,VALID,25.5142,VALID,351,VALID,0,
2009-10-07, 00:27:04,VALID,1003.49,VALID,0,VALID,91.1956,VALID,0,VALID,25.5551,VALID,351,VALID,0,
2009-10-07, 00:28:04,VALID,1003.5,VALID,0,VALID,91.3177,VALID,0,VALID,25.5357,VALID,351,VALID,0,
2009-10-07, 00:29:04,VALID,1003.49,VALID,0,VALID,91.3558,VALID,0,VALID,25.5142,VALID,351,VALID,0,
2009-10-07, 00:30:04,VALID,1003.5,VALID,0,VALID,91.3024,VALID,0,VALID,25.5142,VALID,351,VALID,0,
2009-10-07, 00:31:04,VALID,1003.49,VALID,0,VALID,91.3024,VALID,0,VALID,25.4948,VALID,351,VALID,0,
2009-10-07, 00:32:04,VALID,1003.5,VALID,0,VALID,91.3406,VALID,0,VALID,25.5142,VALID,351,VALID,0,
2009-10-07, 00:33:04,VALID,1003.47,VALID,0,VALID,91.2185,VALID,0,VALID,25.5142,VALID,351,VALID,0,
2009-10-07, 00:34:04,VALID,1003.42,VALID,0,VALID,91.1499,VALID,0,VALID,25.5142,VALID,351,VALID,0,
2009-10-07, 00:35:04,VALID,1003.44,VALID,0,VALID,91.3177,VALID,0,VALID,25.5142,VALID,351,VALID,0,
2009-10-07, 00:36:04,VALID,1003.4,VALID,0,VALID,91.333,VALID,0,VALID,25.5142,VALID,351,VALID,0,
2009-10-07, 00:37:04,VALID,1003.35,VALID,0,VALID,91.3406,VALID,0,VALID,25.4948,VALID,351,VALID,0.560156,
2009-10-07, 00:38:04,VALID,1003.35,VALID,0,VALID,91.3864,VALID,0,VALID,25.4558,VALID,15,VALID,0.469922,
2009-10-07, 00:39:04,VALID,1003.32,VALID,0,VALID,91.3177,VALID,0,VALID,25.4169,VALID,15,VALID,0.590625,
2009-10-07, 00:40:04,VALID,1003.29,VALID,0,VALID,91.4626,VALID,0,VALID,25.3974,VALID,15,VALID,0.371875,
2009-10-07, 00:41:04,VALID,1003.33,VALID,0,VALID,91.6152,VALID,0,VALID,25.3779,VALID,15,VALID,0.291797,
2009-10-07, 00:42:04,VALID,1003.33,VALID,0,VALID,91.7678,VALID,0,VALID,25.3779,VALID,15,VALID,0.333594,
2009-10-07, 00:43:04,VALID,1003.33,VALID,0,VALID,91.8288,VALID,0,VALID,25.3584,VALID,15,VALID,0.375391,
2009-10-07, 00:44:04,VALID,1003.31,VALID,0,VALID,91.8822,VALID,0,VALID,25.3584,VALID,15,VALID,0.283594,
2009-10-07, 00:45:04,VALID,1003.3,VALID,0,VALID,91.9356,VALID,0,VALID,25.339,VALID,15,VALID,0.505078,
2009-10-07, 00:46:04,VALID,1003.28,VALID,0,VALID,91.9814,VALID,0,VALID,25.339,VALID,15,VALID,0.374219,
2009-10-07, 00:47:04,VALID,1003.28,VALID,0,VALID,92.0348,VALID,0,VALID,25.3584,VALID,15,VALID,0.240234,
2009-10-07, 00:48:04,VALID,1003.25,VALID,0,VALID,91.9967,VALID,0,VALID,25.3584,VALID,15,VALID,0.3375,
2009-10-07, 00:49:04,VALID,1003.25,VALID,0,VALID,91.9356,VALID,0,VALID,25.3584,VALID,15,VALID,0.420703,
2009-10-07, 00:50:04,VALID,1003.22,VALID,0,VALID,91.928,VALID,0,VALID,25.3584,VALID,15,VALID,0.303516,
2009-10-07, 00:51:04,VALID,1003.25,VALID,0,VALID,91.9128,VALID,0,VALID,25.3779,VALID,15,VALID,0.344922,
2009-10-07, 00:52:04,VALID,1003.21,VALID,0,VALID,91.928,VALID,0,VALID,25.3779,VALID,15,VALID,0.283984,
2009-10-07, 00:53:04,VALID,1003.18,VALID,0,VALID,92.0577,VALID,0,VALID,25.3974,VALID,15,VALID,0.195703,
2009-10-07, 00:54:04,VALID,1003.18,VALID,0,VALID,92.134,VALID,0,VALID,25.4169,VALID,15,VALID,0.422266,
2009-10-07, 00:55:04,VALID,1003.16,VALID,0,VALID,92.134,VALID,0,VALID,25.3974,VALID,15,VALID,0.277344,
2009-10-07, 00:56:04,VALID,1003.16,VALID,0,VALID,92.0348,VALID,0,VALID,25.3974,VALID,15,VALID,0.396484,
2009-10-07, 00:57:04,VALID,1003.16,VALID,0,VALID,91.9585,VALID,0,VALID,25.3779,VALID,15,VALID,0.377344,
2009-10-07, 00:58:04,VALID,1003.13,VALID,0,VALID,91.928,VALID,0,VALID,25.3565,VALID,15,VALID,0.283203,
2009-10-07, 00:59:04,VALID,1003.11,VALID,0,VALID,92.0043,VALID,0,VALID,25.3779,VALID,15,VALID,0.120703,
2009-10-07, 01:00:04,VALID,1003.15,VALID,0,VALID,91.9738,VALID,0,VALID,25.3974,VALID,15,VALID,0,
2009-10-07, 01:01:04,VALID,1003.11,VALID,0,VALID,91.8746,VALID,0,VALID,25.3565,VALID,15,VALID,0,
2009-10-07, 01:02:04,VALID,1003.11,VALID,0,VALID,91.7983,VALID,0,VALID,25.376,VALID,15,VALID,0.00078125,
2009-10-07, 01:03:04,VALID,1003.11,VALID,0,VALID,91.7983,VALID,0,VALID,25.3974,VALID,15,VALID,0.178125,
2009-10-07, 01:04:04,VALID,1003.08,VALID,0,VALID,91.8594,VALID,0,VALID,25.3955,VALID,15,VALID,0,
2009-10-07, 01:05:04,VALID,1003.1,VALID,0,VALID,91.8288,VALID,0,VALID,25.4149,VALID,15,VALID,0,
2009-10-07, 01:06:04,VALID,1003.08,VALID,0,VALID,91.7754,VALID,0,VALID,25.4363,VALID,15,VALID,0,
2009-10-07, 01:07:04,VALID,1003.11,VALID,0,VALID,91.7678,VALID,0,VALID,25.4149,VALID,15,VALID,0,
2009-10-07, 01:08:04,VALID,1003.09,VALID,0,VALID,91.7373,VALID,0,VALID,25.4363,VALID,15,VALID,0,
2009-10-07, 01:09:04,VALID,1003.05,VALID,0,VALID,91.867,VALID,0,VALID,25.4344,VALID,15,VALID,0,
2009-10-07, 01:10:04,VALID,1003.07,VALID,0,VALID,91.9738,VALID,0,VALID,25.4539,VALID,15,VALID,0,
2009-10-07, 01:11:04,VALID,1003.06,VALID,0,VALID,91.9051,VALID,0,VALID,25.4753,VALID,15,VALID,0.260547,
2009-10-07, 01:12:04,VALID,1003.01,VALID,0,VALID,91.9433,VALID,0,VALID,25.4753,VALID,15,VALID,0.416016,
2009-10-07, 01:13:04,VALID,1003.01,VALID,0,VALID,92.0043,VALID,0,VALID,25.4558,VALID,15,VALID,0.357422,
2009-10-07, 01:14:04,VALID,1003,VALID,0,VALID,92.0196,VALID,0,VALID,25.4363,VALID,15,VALID,0.401953,
2009-10-07, 01:15:04,VALID,1002.97,VALID,0,VALID,92.0958,VALID,0,VALID,25.4149,VALID,15,VALID,0.346094,
2009-10-07, 01:16:04,VALID,1002.97,VALID,0,VALID,92.0348,VALID,0,VALID,25.4169,VALID,15,VALID,0.240234,
2009-10-07, 01:17:04,VALID,1002.96,VALID,0,VALID,92.073,VALID,0,VALID,25.3974,VALID,15,VALID,0,
2009-10-07, 01:18:04,VALID,1002.96,VALID,0,VALID,92.0501,VALID,0,VALID,25.3779,VALID,15,VALID,0,
2009-10-07, 01:19:04,VALID,1002.95,VALID,0,VALID,92.0501,VALID,0,VALID,25.3779,VALID,15,VALID,0,
2009-10-07, 01:20:04,VALID,1002.95,VALID,0,VALID,92.0577,VALID,0,VALID,25.3779,VALID,15,VALID,0,
2009-10-07, 01:21:04,VALID,1002.96,VALID,0,VALID,92.0882,VALID,0,VALID,25.3779,VALID,15,VALID,0,
2009-10-07, 01:22:04,VALID,1002.97,VALID,0,VALID,92.1721,VALID,0,VALID,25.3565,VALID,15,VALID,0.148828,
2009-10-07, 01:23:04,VALID,1002.95,VALID,0,VALID,92.195,VALID,0,VALID,25.376,VALID,15,VALID,0,
2009-10-07, 01:24:04,VALID,1002.95,VALID,0,VALID,92.1416,VALID,0,VALID,25.376,VALID,15,VALID,0,
2009-10-07, 01:25:04,VALID,1002.9,VALID,0,VALID,92.0653,VALID,0,VALID,25.4169,VALID,15,VALID,0,
2009-10-07, 01:26:04,VALID,1002.91,VALID,0,VALID,92.0806,VALID,0,VALID,25.4169,VALID,15,VALID,0,
2009-10-07, 01:27:04,VALID,1002.89,VALID,0,VALID,92.0043,VALID,0,VALID,25.4169,VALID,15,VALID,0,
2009-10-07, 01:28:04,VALID,1002.92,VALID,0,VALID,92.1035,VALID,0,VALID,25.376,VALID,15,VALID,0,
2009-10-07, 01:29:04,VALID,1002.92,VALID,0,VALID,92.2103,VALID,0,VALID,25.4149,VALID,15,VALID,0,
2009-10-07, 01:30:04,VALID,1002.95,VALID,0,VALID,91.9967,VALID,0,VALID,25.3974,VALID,15,VALID,0,
2009-10-07, 01:31:04,VALID,1002.92,VALID,0,VALID,92.0958,VALID,0,VALID,25.3974,VALID,15,VALID,0,
2009-10-07, 01:32:04,VALID,1002.91,VALID,0,VALID,92.1569,VALID,0,VALID,25.3974,VALID,15,VALID,0,
2009-10-07, 01:33:04,VALID,1002.93,VALID,0,VALID,92.1798,VALID,0,VALID,25.376,VALID,15,VALID,0.6125,
2009-10-07, 01:34:04,VALID,1002.88,VALID,0,VALID,92.1721,VALID,0,VALID,25.376,VALID,15,VALID,0.484375,
2009-10-07, 01:35:04,VALID,1002.87,VALID,0,VALID,92.0501,VALID,0,VALID,25.376,VALID,14,VALID,0.579687,
2009-10-07, 01:36:04,VALID,1002.87,VALID,0,VALID,92.0196,VALID,0,VALID,25.3565,VALID,14,VALID,0.417578,
2009-10-07, 01:37:04,VALID,1002.84,VALID,0,VALID,92.134,VALID,0,VALID,25.4169,VALID,14,VALID,0.314063,
2009-10-07, 01:38:04,VALID,1002.8,VALID,0,VALID,92.1874,VALID,0,VALID,25.376,VALID,14,VALID,0.260547,
2009-10-07, 01:39:04,VALID,1002.79,VALID,0,VALID,92.1645,VALID,0,VALID,25.4169,VALID,14,VALID,0.366406,
2009-10-07, 01:40:04,VALID,1002.78,VALID,0,VALID,92.1492,VALID,0,VALID,25.3974,VALID,14,VALID,0.266797,
2009-10-07, 01:41:04,VALID,1002.78,VALID,0,VALID,92.134,VALID,0,VALID,25.4169,VALID,14,VALID,0.274609,
2009-10-07, 01:42:04,VALID,1002.75,VALID,0,VALID,92.0882,VALID,0,VALID,25.4169,VALID,14,VALID,0.290234,
2009-10-07, 01:43:04,VALID,1002.76,VALID,0,VALID,91.989,VALID,0,VALID,25.4363,VALID,14,VALID,0.317578,
2009-10-07, 01:44:04,VALID,1002.75,VALID,0,VALID,91.9967,VALID,0,VALID,25.4149,VALID,14,VALID,0.379687,
2009-10-07, 01:45:04,VALID,1002.75,VALID,0,VALID,91.8975,VALID,0,VALID,25.4558,VALID,14,VALID,0.382031,
2009-10-07, 01:46:04,VALID,1002.75,VALID,0,VALID,91.7907,VALID,0,VALID,25.4344,VALID,14,VALID,0.3125,
2009-10-07, 01:47:04,VALID,1002.76,VALID,0,VALID,91.7297,VALID,0,VALID,25.4539,VALID,14,VALID,0.374609,
2009-10-07, 01:48:04,VALID,1002.74,VALID,0,VALID,91.7907,VALID,0,VALID,25.4734,VALID,14,VALID,0.313672,
2009-10-07, 01:49:04,VALID,1002.76,VALID,0,VALID,91.7678,VALID,0,VALID,25.4734,VALID,14,VALID,0.34375,
2009-10-07, 01:50:04,VALID,1002.74,VALID,0,VALID,91.6229,VALID,0,VALID,25.4753,VALID,14,VALID,0.301562,
2009-10-07, 01:51:04,VALID,1002.75,VALID,0,VALID,91.5847,VALID,0,VALID,25.4948,VALID,14,VALID,0.551172,
2009-10-07, 01:52:04,VALID,1002.72,VALID,0,VALID,91.6686,VALID,0,VALID,25.5142,VALID,14,VALID,0.486328,
2009-10-07, 01:53:04,VALID,1002.71,VALID,0,VALID,91.6763,VALID,0,VALID,25.5123,VALID,14,VALID,0.482422,
2009-10-07, 01:54:04,VALID,1002.7,VALID,0,VALID,91.7373,VALID,0,VALID,25.5337,VALID,14,VALID,0.388281,
2009-10-07, 01:55:04,VALID,1002.7,VALID,0,VALID,91.6381,VALID,0,VALID,25.5337,VALID,14,VALID,0.428516,
2009-10-07, 01:56:04,VALID,1002.73,VALID,0,VALID,91.5542,VALID,0,VALID,25.5123,VALID,14,VALID,0.391797,
2009-10-07, 01:57:04,VALID,1002.76,VALID,0,VALID,91.5618,VALID,0,VALID,25.5123,VALID,14,VALID,0.371094,
2009-10-07, 01:58:04,VALID,1002.78,VALID,0,VALID,91.5771,VALID,0,VALID,25.5337,VALID,14,VALID,0.366406,
2009-10-07, 01:59:04,VALID,1002.84,VALID,0,VALID,91.5008,VALID,0,VALID,25.5337,VALID,14,VALID,0.447656,
2009-10-07, 02:00:04,VALID,1002.89,VALID,0,VALID,91.6,VALID,0,VALID,25.5123,VALID,14,VALID,0.261719,
2009-10-07, 02:01:04,VALID,1002.9,VALID,0,VALID,91.6457,VALID,0,VALID,25.5123,VALID,14,VALID,0.251172,
2009-10-07, 02:02:04,VALID,1002.93,VALID,0,VALID,91.661,VALID,0,VALID,25.5318,VALID,14,VALID,0.3125,
2009-10-07, 02:03:04,VALID,1002.95,VALID,0,VALID,91.7144,VALID,0,VALID,25.5513,VALID,14,VALID,0.241406,
2009-10-07, 02:04:04,VALID,1002.96,VALID,0,VALID,91.6457,VALID,0.100563,VALID,25.5298,VALID,14,VALID,0.408984,
2009-10-07, 02:05:04,VALID,1002.98,VALID,0,VALID,91.5847,VALID,0.100563,VALID,25.5318,VALID,14,VALID,0.438672,
2009-10-07, 02:06:04,VALID,1002.93,VALID,0,VALID,91.6152,VALID,0,VALID,25.5513,VALID,14,VALID,0.405859,
2009-10-07, 02:07:04,VALID,1002.91,VALID,0,VALID,91.6381,VALID,0.100563,VALID,25.5513,VALID,14,VALID,0.564062,
2009-10-07, 02:08:04,VALID,1002.88,VALID,0,VALID,91.6,VALID,0,VALID,25.5513,VALID,14,VALID,0.529297,
2009-10-07, 02:09:04,VALID,1002.83,VALID,0,VALID,91.5847,VALID,0,VALID,25.5513,VALID,13,VALID,0.5,
2009-10-07, 02:10:04,VALID,1002.84,VALID,0,VALID,91.5008,VALID,0,VALID,25.5513,VALID,12,VALID,0.446484,
2009-10-07, 02:11:04,VALID,1002.82,VALID,0,VALID,91.3864,VALID,0.100563,VALID,25.5513,VALID,358,VALID,0.332422,
2009-10-07, 02:12:04,VALID,1002.76,VALID,0,VALID,91.2414,VALID,0,VALID,25.5902,VALID,351,VALID,0.489453,
2009-10-07, 02:13:04,VALID,1002.74,VALID,0,VALID,91.1041,VALID,0,VALID,25.6292,VALID,356,VALID,0.620703,
2009-10-07, 02:14:04,VALID,1002.74,VALID,0,VALID,91.188,VALID,0.100563,VALID,25.6681,VALID,356,VALID,0.545313,
2009-10-07, 02:15:04,VALID,1002.7,VALID,0,VALID,90.9744,VALID,0.100563,VALID,25.6876,VALID,356,VALID,0.561719,
2009-10-07, 02:16:04,VALID,1002.69,VALID,0,VALID,90.9439,VALID,0,VALID,25.7071,VALID,356,VALID,0.401563,
2009-10-07, 02:17:04,VALID,1002.71,VALID,0,VALID,90.6998,VALID,0,VALID,25.7071,VALID,356,VALID,0.419531,
2009-10-07, 02:18:04,VALID,1002.7,VALID,0,VALID,90.6769,VALID,0,VALID,25.7265,VALID,356,VALID,0.403125,
2009-10-07, 02:19:04,VALID,1002.68,VALID,0,VALID,90.776,VALID,0,VALID,25.748,VALID,356,VALID,0.280469,
2009-10-07, 02:20:04,VALID,1002.64,VALID,0,VALID,90.8371,VALID,0,VALID,25.7265,VALID,356,VALID,0.218359,
2009-10-07, 02:21:04,VALID,1002.64,VALID,0,VALID,90.9515,VALID,0.100563,VALID,25.7265,VALID,356,VALID,0.205469,
2009-10-07, 02:22:04,VALID,1002.6,VALID,0,VALID,90.7303,VALID,0.100563,VALID,25.7071,VALID,356,VALID,0.339063,
2009-10-07, 02:23:04,VALID,1002.61,VALID,0,VALID,90.8523,VALID,0,VALID,25.7285,VALID,356,VALID,0.23125,
2009-10-07, 02:24:04,VALID,1002.6,VALID,0,VALID,90.8447,VALID,0.100563,VALID,25.709,VALID,356,VALID,0.128516,
2009-10-07, 02:25:04,VALID,1002.58,VALID,0,VALID,90.8218,VALID,0,VALID,25.6876,VALID,356,VALID,0.232812,
2009-10-07, 02:26:04,VALID,1002.58,VALID,0,VALID,90.8905,VALID,0.100563,VALID,25.6876,VALID,356,VALID,0.0328125,
2009-10-07, 02:27:04,VALID,1002.59,VALID,0,VALID,90.7303,VALID,0,VALID,25.6876,VALID,356,VALID,0.114063,
2009-10-07, 02:28:04,VALID,1002.58,VALID,0,VALID,90.593,VALID,0,VALID,25.7071,VALID,356,VALID,0.180078,
2009-10-07, 02:29:04,VALID,1002.6,VALID,0,VALID,90.2268,VALID,0,VALID,25.7071,VALID,356,VALID,0.0167969,
2009-10-07, 02:30:04,VALID,1002.56,VALID,0,VALID,89.9292,VALID,0,VALID,25.7655,VALID,356,VALID,0.249609,
2009-10-07, 02:31:04,VALID,1002.56,VALID,0,VALID,89.5173,VALID,0,VALID,25.8239,VALID,356,VALID,0.359375,
2009-10-07, 02:32:04,VALID,1002.58,VALID,0,VALID,89.3571,VALID,0.100563,VALID,25.8823,VALID,356,VALID,0.158984,
2009-10-07, 02:33:04,VALID,1002.56,VALID,0,VALID,88.8459,VALID,0.100563,VALID,25.9018,VALID,354,VALID,0.515234,
2009-10-07, 02:34:04,VALID,1002.54,VALID,0,VALID,88.3958,VALID,0.100563,VALID,25.9817,VALID,355,VALID,0.459766,
2009-10-07, 02:35:04,VALID,1002.53,VALID,0,VALID,88.0449,VALID,0,VALID,26.0401,VALID,333,VALID,0.595703,
2009-10-07, 02:36:04,VALID,1002.52,VALID,0,VALID,87.755,VALID,0.100563,VALID,26.0771,VALID,354,VALID,0.367578,
2009-10-07, 02:37:04,VALID,1002.53,VALID,0,VALID,87.5338,VALID,0.100563,VALID,26.116,VALID,355,VALID,0.616406,
2009-10-07, 02:38:04,VALID,1002.51,VALID,0,VALID,87.5109,VALID,0.100563,VALID,26.155,VALID,351,VALID,0.316797,
2009-10-07, 02:39:04,VALID,1002.5,VALID,0,VALID,87.488,VALID,0,VALID,26.155,VALID,347,VALID,0.230859,
2009-10-07, 02:40:04,VALID,1002.51,VALID,0,VALID,87.4422,VALID,0.100563,VALID,26.1745,VALID,347,VALID,0.438672,
2009-10-07, 02:41:04,VALID,1002.47,VALID,0,VALID,87.1828,VALID,0,VALID,26.1745,VALID,356,VALID,0.520703,
2009-10-07, 02:42:04,VALID,1002.46,VALID,0,VALID,87.3736,VALID,0,VALID,26.194,VALID,356,VALID,0.341406,
2009-10-07, 02:43:04,VALID,1002.43,VALID,0,VALID,87.2668,VALID,0.100563,VALID,26.1745,VALID,356,VALID,0.307031,
2009-10-07, 02:44:04,VALID,1002.45,VALID,0,VALID,87.3354,VALID,0,VALID,26.1765,VALID,356,VALID,0.171484,
2009-10-07, 02:45:04,VALID,1002.43,VALID,0,VALID,87.2591,VALID,0.100563,VALID,26.1765,VALID,356,VALID,0.142578,
2009-10-07, 02:46:04,VALID,1002.43,VALID,0,VALID,87.816,VALID,0.100563,VALID,26.157,VALID,356,VALID,0,
2009-10-07, 02:47:04,VALID,1002.42,VALID,0,VALID,88.167,VALID,0,VALID,26.118,VALID,356,VALID,0,
2009-10-07, 02:48:04,VALID,1002.44,VALID,0,VALID,88.3272,VALID,0.100563,VALID,26.0771,VALID,356,VALID,0,
2009-10-07, 02:49:04,VALID,1002.42,VALID,0,VALID,88.4416,VALID,0.100563,VALID,26.0381,VALID,356,VALID,0,
2009-10-07, 02:50:04,VALID,1002.43,VALID,0,VALID,88.3653,VALID,0,VALID,25.9992,VALID,356,VALID,0,
2009-10-07, 02:51:04,VALID,1002.43,VALID,0,VALID,88.4798,VALID,0,VALID,26.0596,VALID,356,VALID,0,
2009-10-07, 02:52:04,VALID,1002.43,VALID,0,VALID,88.3501,VALID,0,VALID,26.0187,VALID,356,VALID,0,
2009-10-07, 02:53:04,VALID,1002.46,VALID,0,VALID,88.8002,VALID,0,VALID,26.0401,VALID,356,VALID,0,
2009-10-07, 02:54:04,VALID,1002.46,VALID,0,VALID,88.6171,VALID,0.100563,VALID,26.0187,VALID,356,VALID,0,
2009-10-07, 02:55:04,VALID,1002.46,VALID,0,VALID,88.3729,VALID,0,VALID,25.9992,VALID,356,VALID,0,
2009-10-07, 02:56:04,VALID,1002.47,VALID,0,VALID,88.167,VALID,0.100563,VALID,26.0791,VALID,356,VALID,0,
2009-10-07, 02:57:04,VALID,1002.49,VALID,0,VALID,87.7474,VALID,0,VALID,26.0576,VALID,313,VALID,0.60625,
2009-10-07, 02:58:04,VALID,1002.48,VALID,0,VALID,87.6635,VALID,0,VALID,26.118,VALID,313,VALID,0.162109,
2009-10-07, 02:59:04,VALID,1002.49,VALID,0,VALID,87.3354,VALID,0,VALID,26.1375,VALID,300,VALID,0.239453,
2009-10-07, 03:00:04,VALID,1002.48,VALID,0,VALID,86.8395,VALID,0,VALID,26.1745,VALID,300,VALID,0.541797,
2009-10-07, 03:01:04,VALID,1002.46,VALID,0,VALID,86.6793,VALID,0,VALID,26.2739,VALID,300,VALID,0.396094,
2009-10-07, 03:02:04,VALID,1002.49,VALID,0,VALID,86.3818,VALID,0,VALID,26.2933,VALID,300,VALID,0.191406,
2009-10-07, 03:03:04,VALID,1002.48,VALID,0,VALID,86.2598,VALID,0,VALID,26.3518,VALID,307,VALID,0.394531,
2009-10-07, 03:04:04,VALID,1002.49,VALID,0,VALID,86.481,VALID,0,VALID,26.3303,VALID,353,VALID,0.655859,
2009-10-07, 03:05:04,VALID,1002.46,VALID,0,VALID,86.1911,VALID,0,VALID,26.3108,VALID,349,VALID,0.570313,
2009-10-07, 03:06:04,VALID,1002.48,VALID,0,VALID,86.2369,VALID,0,VALID,26.3323,VALID,291,VALID,0.730078,
2009-10-07, 03:07:04,VALID,1002.46,VALID,0,VALID,86.336,VALID,0,VALID,26.3323,VALID,300,VALID,0.413281,
2009-10-07, 03:08:04,VALID,1002.42,VALID,0,VALID,86.214,VALID,0,VALID,26.3518,VALID,298,VALID,0.243359,
2009-10-07, 03:09:04,VALID,1002.42,VALID,0,VALID,86.4505,VALID,0,VALID,26.3303,VALID,360,VALID,1.03125,
2009-10-07, 03:10:04,VALID,1002.41,VALID,0,VALID,86.1758,VALID,0.100563,VALID,26.3323,VALID,339,VALID,0.694922,
2009-10-07, 03:11:04,VALID,1002.37,VALID,0,VALID,86.2903,VALID,0,VALID,26.3128,VALID,1,VALID,1.09492,
2009-10-07, 03:12:04,VALID,1002.4,VALID,0,VALID,86.2292,VALID,0,VALID,26.2913,VALID,357,VALID,1.13867,
2009-10-07, 03:13:04,VALID,1002.35,VALID,0,VALID,86.5268,VALID,0,VALID,26.2544,VALID,337,VALID,0.738672,
2009-10-07, 03:14:04,VALID,1002.37,VALID,0,VALID,86.7022,VALID,0,VALID,26.2369,VALID,354,VALID,0.399609,
2009-10-07, 03:15:04,VALID,1002.38,VALID,0,VALID,86.9235,VALID,0,VALID,26.2174,VALID,349,VALID,0.0285156,
2009-10-07, 03:16:04,VALID,1002.4,VALID,0,VALID,87.0989,VALID,0,VALID,26.1765,VALID,349,VALID,0,
2009-10-07, 03:17:04,VALID,1002.38,VALID,0,VALID,87.16,VALID,0,VALID,26.1784,VALID,349,VALID,0.396094,
2009-10-07, 03:18:04,VALID,1002.38,VALID,0,VALID,87.1828,VALID,0,VALID,26.1395,VALID,337,VALID,0.323438,
2009-10-07, 03:19:04,VALID,1002.37,VALID,0,VALID,87.2515,VALID,0,VALID,26.118,VALID,343,VALID,0.0210938,
2009-10-07, 03:20:04,VALID,1002.41,VALID,0,VALID,87.2591,VALID,0,VALID,26.118,VALID,272,VALID,0.671484,
2009-10-07, 03:21:04,VALID,1002.39,VALID,0,VALID,87.1371,VALID,0,VALID,26.118,VALID,284,VALID,0.303516,
2009-10-07, 03:22:04,VALID,1002.4,VALID,0,VALID,87.1828,VALID,0,VALID,26.118,VALID,284,VALID,0.0804688,
2009-10-07, 03:23:04,VALID,1002.41,VALID,0,VALID,87.2591,VALID,0,VALID,26.118,VALID,331,VALID,0.603125,
2009-10-07, 03:24:04,VALID,1002.44,VALID,0,VALID,87.2286,VALID,0,VALID,26.12,VALID,346,VALID,0.813281,
2009-10-07, 03:25:04,VALID,1002.45,VALID,0,VALID,87.1447,VALID,0,VALID,26.12,VALID,356,VALID,0.669531,
2009-10-07, 03:26:04,VALID,1002.47,VALID,0,VALID,87.1828,VALID,0,VALID,26.1395,VALID,351,VALID,0.58125,
2009-10-07, 03:27:04,VALID,1002.47,VALID,0,VALID,87.1218,VALID,0,VALID,26.1395,VALID,356,VALID,0.473437,
2009-10-07, 03:28:04,VALID,1002.52,VALID,0,VALID,87.2744,VALID,0,VALID,26.0966,VALID,355,VALID,0.434375,
2009-10-07, 03:29:04,VALID,1002.5,VALID,0,VALID,87.3659,VALID,0,VALID,26.0966,VALID,355,VALID,0.513281,
2009-10-07, 03:30:04,VALID,1002.55,VALID,0,VALID,87.5185,VALID,0,VALID,26.0791,VALID,353,VALID,0.539844,
2009-10-07, 03:31:04,VALID,1002.55,VALID,0,VALID,87.4575,VALID,0,VALID,26.0596,VALID,353,VALID,0.532812,
2009-10-07, 03:32:04,VALID,1002.59,VALID,0,VALID,87.427,VALID,0,VALID,26.0187,VALID,343,VALID,0.376563,
2009-10-07, 03:33:04,VALID,1002.59,VALID,0,VALID,87.5719,VALID,0,VALID,26.0401,VALID,343,VALID,0.417188,
2009-10-07, 03:34:04,VALID,1002.63,VALID,0,VALID,87.8771,VALID,0,VALID,26.0206,VALID,343,VALID,0.427734,
2009-10-07, 03:35:04,VALID,1002.63,VALID,0,VALID,88.1212,VALID,0,VALID,25.9817,VALID,343,VALID,0.51875,
2009-10-07, 03:36:04,VALID,1002.63,VALID,0,VALID,88.4798,VALID,0,VALID,25.9232,VALID,358,VALID,0.535547,
2009-10-07, 03:37:04,VALID,1002.64,VALID,0,VALID,88.7849,VALID,0,VALID,25.8239,VALID,358,VALID,0.171875,
2009-10-07, 03:38:04,VALID,1002.63,VALID,0,VALID,89.029,VALID,0,VALID,25.8064,VALID,358,VALID,0,
2009-10-07, 03:39:04,VALID,1002.65,VALID,0,VALID,89.2884,VALID,0,VALID,25.7265,VALID,358,VALID,0,
2009-10-07, 03:40:04,VALID,1002.67,VALID,0,VALID,89.4563,VALID,0,VALID,25.6876,VALID,358,VALID,0,
2009-10-07, 03:41:04,VALID,1002.64,VALID,0,VALID,89.5554,VALID,0,VALID,25.6506,VALID,358,VALID,0,
2009-10-07, 03:42:04,VALID,1002.65,VALID,0,VALID,89.7843,VALID,0,VALID,25.6097,VALID,358,VALID,0.107813,
2009-10-07, 03:43:04,VALID,1002.68,VALID,0,VALID,90.1047,VALID,0,VALID,25.5707,VALID,358,VALID,0.0148437,
2009-10-07, 03:44:04,VALID,1002.64,VALID,0,VALID,90.2268,VALID,0,VALID,25.5337,VALID,358,VALID,0,
2009-10-07, 03:45:04,VALID,1002.67,VALID,0,VALID,90.3946,VALID,0,VALID,25.4948,VALID,358,VALID,0,
2009-10-07, 03:46:04,VALID,1002.67,VALID,0,VALID,90.4938,VALID,0,VALID,25.4753,VALID,358,VALID,0,
2009-10-07, 03:47:04,VALID,1002.72,VALID,0,VALID,90.6845,VALID,0,VALID,25.4558,VALID,358,VALID,0,
2009-10-07, 03:48:04,VALID,1002.73,VALID,0,VALID,90.8981,VALID,0,VALID,25.4344,VALID,358,VALID,0,